Location: Unspecified
(0.0000°N, 0.0000°E)
Time: 16:47:40
(UTC+00:00)

BlueWalker 3 - Pass Details

Date: 17 March 2026
Orbit: 449 x 457 km, 53.2° (Epoch: 17 April)

Event Time Altitude Azimuth Distance (km) Brightness Sun altitude
Rises 19:07:13 0° 216° (SW) 2,450 6.0 -14.7°
Maximum altitude 19:12:53 80° 303° (WNW) 461 1.7 -16.2°
Enters shadow 19:15:15 20° 29° (NNE) 1,107 3.4 -16.7°
